Home > Weather > Gifhorn > Past weeks

Flag for Germany Weather for the Past 2 Weeks in Gifhorn, Lower Saxony, Germany

Now
48 °F

Light rain. Mostly cloudy.


Feels Like: 46 °F
Forecast: 39 / 58 °F
Wind: 6 mph from Northwest

Location: Braunschweig Wolfsburg

Current Time: May 3, 2016 at 4:33:25 PM

Latest Report: May 3, 2016 at 3:50 PM


Visibility: N/A

Pressure: 30.15 "Hg

Humidity: 94%

Dew Point: 46 °F

Location of GifhornLocation

Historic Weather in Gifhorn — Graph

°F

Gifhorn Temperature Yesterday

Maximum temperature yesterday: 68 °F (at 4:20 PM)
Minimum temperature yesterday: 39 °F (at 5:50 AM)
Average temperature yesterday: 59 °F

High & Low Weather Summary for the Past Weeks

 TemperatureHumidityPressure
High68 °F (May 2, 4:20 PM)100% (Apr 22, 7:50 AM)30.42 "Hg (Apr 22, 7:50 AM)
Low32 °F (Apr 21, 6:50 AM)29% (Apr 21, 4:20 PM)29.45 "Hg (Apr 26, 6:50 AM)
Average48 °F61%29.98 "Hg
* Reported Apr 18 2:20 PM — May 3 2:50 PM, Gifhorn, Weather by CustomWeather, © 2016

Note: Actual official high and low records may vary slightly from our data, if they occured in-between our weather recording intervals... More about our weather records

Advertising

Gifhorn Weather History for the Previous 24 Hours

Scroll right to see more
 ConditionsComfort  
Time TempWeatherWind HumidityBarometerVisibility
2:50 PM
Tue, May 3
48 °FLight rain. Cloudy.8 mph87%30.12 "HgN/A
2:20 PM48 °FLight rain. Cloudy.12 mph94%30.12 "HgN/A
1:20 PM50 °FMore clouds than sun.10 mph82%30.12 "HgN/A
12:50 PM50 °FMostly cloudy.15 mph82%30.09 "HgN/A
12:20 PM52 °FDrizzle. Mostly cloudy.14 mph82%30.09 "HgN/A
11:50 AM54 °FMore clouds than sun.13 mph77%30.07 "HgN/A
11:20 AM57 °FMore clouds than sun.7 mph67%30.07 "HgN/A
10:50 AM57 °FPartly sunny.8 mph67%30.07 "HgN/A
10:20 AM57 °FPassing clouds.8 mph67%30.04 "HgN/A
9:50 AM57 °FSunny.7 mph67%30.04 "Hg10 mi
9:20 AM57 °FSunny.6 mph63%30.04 "Hg10 mi
8:50 AM55 °FSunny.5 mph67%30.04 "Hg10 mi
8:20 AM54 °FSunny.6 mph72%30.04 "Hg10 mi
7:50 AM52 °FSunny.5 mph82%30.04 "Hg10 mi
7:20 AM46 °FSunny.2 mph82%30.04 "Hg10 mi
6:50 AM45 °FSunny.No wind81%30.04 "Hg10 mi
10:50 PM
Mon, May 2
50 °FClear.2 mph71%30.09 "Hg10 mi
9:50 PM54 °FClear.3 mph63%30.09 "Hg10 mi
9:20 PM57 °FPassing clouds.5 mph55%30.09 "HgN/A
8:50 PM59 °FSunny.5 mph51%30.09 "Hg10 mi
8:20 PM59 °FSunny.6 mph51%30.09 "Hg10 mi
7:50 PM63 °FSunny.8 mph45%30.09 "Hg10 mi
7:20 PM64 °FSunny.10 mph40%30.12 "Hg10 mi
6:50 PM64 °FPassing clouds.12 mph37%30.12 "HgN/A
6:20 PM66 °FSunny.13 mph37%30.12 "Hg10 mi
5:50 PM68 °FPassing clouds.10 mph35%30.12 "HgN/A
5:20 PM66 °FPassing clouds.9 mph35%30.15 "HgN/A
4:50 PM66 °FPassing clouds.9 mph35%30.15 "HgN/A
4:20 PM68 °FPassing clouds.8 mph33%30.15 "HgN/A
Weather by CustomWeather, © 2016

See weather overviewHow to use our weather pages